SPACEWAY 2

Last updated on Thu Nov 21 2024 00:02:40 GMT+0000 (Coordinated Universal Time)

1 28903U 05046B 24325.48454770 .00000099 00000+0 00000+0 0 9998 2 28903 3.9953 78.1815 0000865 168.4175 220.6075 0.99566344 69748
UTC large
Height (km)
Speed (km/s)
/
Latitude / Longitude
Inclination (degrees)
Orbital Period (minutes)
Azimuth
Elevation
Range (km)
Doppler Factor

Next 0 passes for location: London (51.5072 / 0.1276)

Sorry there are no passes over London.